Berlin, MD

8:07 PM EST on February 20, 2017 (GMT -0500)
Ocean City Municipal

Weather History for KOXB - January, 2013

Change the Weather History Date:

Saturday, January 19, 2013

  Actual Average (KSBY) Record (KSBY)
Temperature  
Mean Temperature 36 °F -  
Max Temperature 48 °F 42 °F 68 °F (1973)
Min Temperature 24 °F 25 °F -3 °F (1957)
Degree Days  
Heating Degree Days 29    
Moisture  
Dew Point 31 °F    
Average Humidity 70    
Maximum Humidity 91    
Minimum Humidity 50    
Precipitation  
Precipitation 0.00 in - - ()
Sea Level Pressure  
Sea Level Pressure 30.31 in    
Wind  
Wind Speed 9 mph (SW)    
Max Wind Speed 16 mph    
Max Gust Speed 24 mph    
Visibility 10 miles    
Events      
Averages and records for this station are not official NWS values.
T = Trace of Precipitation, MM = Missing Value Source: NWS Daily Summary

Daily Weather History Graph

Daily Weather History Graph

Search for Another Location

Airport or City:

Trip Planner

Search our weather history database for the weather conditions in past years. The results will help you decide how hot, cold, wet, or windy it might be!

Date:

Astronomy

Jan. 19, 2013 Rise Set
Actual Time 7:14 AM EST 5:08 PM EST
Civil Twilight 6:45 AM EST 5:37 PM EST
Nautical Twilight 6:13 AM EST 6:09 PM EST
Astronomical Twilight 5:41 AM EST 6:41 PM EST
Moon 11:32 AM EST (1/19) 12:47 AM EST (1/19)
Length of Visible Light 10h 51m
Length of Day
9h 54m
First Quarter, 57% of the Moon is Illuminated
Jan 19
First Quarter
Jan 26
Full
Feb 3
Last Quarter
Feb 10
New
Feb 17
First Quarter

Hourly Weather History & Observations

Time (EST) Temp. Windchill Dew Point Humidity Pressure Visibility Wind Dir Wind Speed Gust Speed Precip Events Conditions
12:53 AM 24.1 °F 19.7 °F 21.9 °F 91% 30.49 in 10.0 mi SSW 3.5 mph - N/A   Clear
1:53 AM 30.9 °F 24.3 °F 25.0 °F 79% 30.48 in 10.0 mi SW 6.9 mph - N/A   Clear
2:53 AM 32.0 °F 26.4 °F 24.1 °F 73% 30.47 in 10.0 mi WSW 5.8 mph - N/A   Clear
3:53 AM 34.0 °F 26.6 °F 25.0 °F 70% 30.45 in 10.0 mi SW 9.2 mph - N/A   Clear
4:53 AM 35.1 °F 27.4 °F 27.0 °F 72% 30.44 in 10.0 mi SW 10.4 mph - N/A   Clear
5:53 AM 36.0 °F 28.5 °F 28.0 °F 73% 30.44 in 10.0 mi SW 10.4 mph - N/A   Clear
6:53 AM 37.0 °F 30.4 °F 28.9 °F 73% 30.43 in 10.0 mi SW 9.2 mph - N/A   Clear
7:53 AM 37.0 °F 30.4 °F 32.0 °F 82% 30.43 in 10.0 mi SW 9.2 mph - N/A   Clear
8:53 AM 39.9 °F 32.5 °F 28.0 °F 63% 30.42 in 10.0 mi SW 12.7 mph - N/A   Clear
9:53 AM 42.1 °F 34.2 °F 27.0 °F 55% 30.41 in 10.0 mi SW 16.1 mph 23.0 mph N/A   Clear
10:53 AM 45.0 °F 38.9 °F 28.0 °F 52% 30.39 in 10.0 mi SW 12.7 mph 20.7 mph N/A   Clear
11:53 AM 46.0 °F 39.9 °F 32.0 °F 58% 30.33 in 10.0 mi SW 13.8 mph 18.4 mph N/A   Clear
12:53 PM 48.0 °F - 30.0 °F 50% 30.29 in 10.0 mi SSW 10.4 mph 24.2 mph N/A   Clear
1:53 PM 46.9 °F - 32.0 °F 56% 30.26 in 10.0 mi SSW 15.0 mph 20.7 mph N/A   Clear
2:53 PM 46.9 °F - 34.0 °F 61% 30.23 in 10.0 mi SSW 12.7 mph - N/A   Clear
3:53 PM 46.0 °F 40.6 °F 34.0 °F 63% 30.20 in 10.0 mi SSW 11.5 mph 18.4 mph N/A   Clear
4:53 PM 43.0 °F 37.2 °F 34.0 °F 71% 30.19 in 10.0 mi SSW 10.4 mph - N/A   Clear
5:53 PM 43.0 °F 37.2 °F 34.0 °F 71% 30.18 in 10.0 mi SSW 10.4 mph - N/A   Clear
6:53 PM 42.1 °F 37.1 °F 36.0 °F 79% 30.17 in 10.0 mi SSW 8.1 mph - N/A   Clear
7:53 PM 43.0 °F 37.2 °F 39.0 °F 86% 30.16 in 10.0 mi SW 10.4 mph - N/A   Clear
8:53 PM 44.1 °F 38.1 °F 41.0 °F 89% 30.14 in 10.0 mi SW 11.5 mph - N/A   Clear
9:53 PM 44.1 °F 37.7 °F 37.9 °F 79% 30.12 in 10.0 mi SW 12.7 mph - N/A   Clear
10:53 PM 43.0 °F 36.8 °F 34.0 °F 71% 30.10 in 10.0 mi WSW 11.5 mph - N/A   Clear